Temp: 1.7°C   Baro: 1011.2mb
  Wind: 0.0mph   Dir: N (352°)
  Rain: 0.0mm (0.0mm/hr)
  Solar: 0W/m2  Hum: 82%

Historic data

Bath Spa Weather Station Historical Data
Daily Summary for October 20, 2021 Units:  Metric    English   Both
Daily Weekly Monthly Yearly Custom
  High: Low: Average:
Temperature: 16.6 °C 8.4 °C 14.1 °C
Dew Point: 15.2 °C 7.8 °C 12.3 °C
Humidity: 95% 65% 87%
Wind Speed: 23.8km/h 0km/h 7.9km/h
Wind Gust: 45.1km/h - -
Wind- - SW
Pressure: 1005.6 hPa 988.7 hPa -
Precipitation: 26.42 mm    
Historical Graphs
 
 
Tabular Data for October 20, 2021
Time Temperature Dew Point Pressure Wind Wind Speed Wind Gust Humidity Rainfall Rate (Hourly) solar
00:04 15.7 °C 15.2 °C 1005.6 hPa WSW 10 km/h 16.1 km/h 94% 1.27 mm 0 W/m2
00:09 15.7 °C 15.2 °C 1005.6 hPa WSW 4 km/h 11.3 km/h 94% 1.52 mm 0 W/m2
00:14 15.7 °C 15.2 °C 1005.6 hPa WSW 4.5 km/h 8 km/h 94% 1.52 mm 0 W/m2
00:19 15.7 °C 15.2 °C 1005.6 hPa WSW 8 km/h 16.1 km/h 94% 1.52 mm 0 W/m2
00:24 15.7 °C 15.2 °C 1005.6 hPa SW 5.6 km/h 16.1 km/h 94% 1.52 mm 0 W/m2
00:29 15.6 °C 15.1 °C 1005.6 hPa SW 7.1 km/h 14.5 km/h 94% 1.52 mm 0 W/m2
00:34 15.6 °C 15.1 °C 1005.3 hPa SW 3.1 km/h 11.3 km/h 94% 1.52 mm 0 W/m2
00:39 15.6 °C 15.1 °C 1005 hPa SW 7.2 km/h 14.5 km/h 94% 1.27 mm 0 W/m2
00:44 15.5 °C 15 °C 1005 hPa SW 7.1 km/h 16.1 km/h 94% 1.27 mm 0 W/m2
00:49 15.5 °C 15 °C 1005 hPa WSW 10 km/h 17.7 km/h 94% 1.02 mm 0 W/m2
00:54 15.5 °C 15 °C 1005 hPa SW 7.4 km/h 17.7 km/h 94% 1.02 mm 0 W/m2
00:59 15.5 °C 15 °C 1005 hPa SW 6.6 km/h 16.1 km/h 94% 0.76 mm 0 W/m2
01:04 15.5 °C 15 °C 1005 hPa SW 4 km/h 12.9 km/h 94% 0.76 mm 0 W/m2
01:09 15.4 °C 14.9 °C 1005 hPa SW 4.7 km/h 9.7 km/h 94% 0.76 mm 0 W/m2
01:13 15.4 °C 14.9 °C 1005 hPa SW 1.6 km/h 6.4 km/h 94% 0.51 mm 0 W/m2
01:19 15.4 °C 14.9 °C 1004.6 hPa SW 0.6 km/h 4.8 km/h 94% 0.51 mm 0 W/m2
01:23 15.4 °C 14.9 °C 1004.6 hPa SW 1.6 km/h 4.8 km/h 94% 0.25 mm 0 W/m2
01:29 15.4 °C 14.9 °C 1004.3 hPa SW 1.9 km/h 4.8 km/h 94% 0.25 mm 0 W/m2
01:34 15.4 °C 14.9 °C 1004.3 hPa SW 2.4 km/h 8 km/h 94% 0 mm 0 W/m2
01:39 15.4 °C 14.9 °C 1004.3 hPa SW 1.3 km/h 6.4 km/h 94% 0 mm 0 W/m2
01:44 15.4 °C 14.9 °C 1004.3 hPa SW 0.6 km/h 8 km/h 94% 0.25 mm 0 W/m2
01:49 15.4 °C 14.9 °C 1003.9 hPa SW 2.9 km/h 8 km/h 94% 0.25 mm 0 W/m2
01:54 15.4 °C 14.9 °C 1003.9 hPa SW 2.1 km/h 8 km/h 94% 0.25 mm 0 W/m2
01:59 15.4 °C 14.9 °C 1003.9 hPa SW 2.6 km/h 8 km/h 94% 0.25 mm 0 W/m2
02:04 15.4 °C 14.9 °C 1003.9 hPa SW 1.9 km/h 8 km/h 94% 0.25 mm 0 W/m2
02:09 15.4 °C 14.9 °C 1003.9 hPa SW 4.8 km/h 9.7 km/h 94% 0.25 mm 0 W/m2
02:14 15.4 °C 14.9 °C 1003.9 hPa SW 6.9 km/h 11.3 km/h 94% 0.25 mm 0 W/m2
02:19 15.4 °C 14.9 °C 1003.9 hPa SW 3.4 km/h 11.3 km/h 94% 0.51 mm 0 W/m2
02:24 15.4 °C 14.9 °C 1003.9 hPa SW 1 km/h 6.4 km/h 94% 0.76 mm 0 W/m2
02:29 15.4 °C 14.9 °C 1003.6 hPa SW 5.8 km/h 9.7 km/h 94% 1.02 mm 0 W/m2
02:34 15.4 °C 14.9 °C 1003.6 hPa SW 4.3 km/h 12.9 km/h 94% 1.02 mm 0 W/m2
02:39 15.4 °C 14.9 °C 1003.3 hPa SW 3.5 km/h 8 km/h 94% 1.27 mm 0 W/m2
02:44 15.4 °C 14.9 °C 1003.6 hPa SW 3.2 km/h 8 km/h 94% 1.27 mm 0 W/m2
02:49 15.4 °C 14.9 °C 1003.6 hPa SW 4.7 km/h 8 km/h 94% 1.02 mm 0 W/m2
02:54 15.4 °C 14.9 °C 1003.3 hPa SW 2.6 km/h 11.3 km/h 94% 1.02 mm 0 W/m2
02:59 15.4 °C 14.9 °C 1002.9 hPa SW 2.6 km/h 8 km/h 94% 1.02 mm 0 W/m2
03:04 15.4 °C 14.9 °C 1002.9 hPa SW 5.6 km/h 11.3 km/h 94% 1.02 mm 0 W/m2
03:09 15.4 °C 14.9 °C 1002.9 hPa SW 4 km/h 8 km/h 94% 1.02 mm 0 W/m2
03:14 15.4 °C 14.9 °C 1002.9 hPa SW 2.6 km/h 11.3 km/h 94% 1.02 mm 0 W/m2
03:18 15.4 °C 14.9 °C 1002.9 hPa SW 1.6 km/h 6.4 km/h 94% 0.76 mm 0 W/m2
03:24 15.4 °C 14.9 °C 1002.9 hPa SW 2.9 km/h 6.4 km/h 94% 0.76 mm 0 W/m2
03:29 15.4 °C 14.9 °C 1002.9 hPa SW 0.6 km/h 6.4 km/h 94% 0.51 mm 0 W/m2
03:34 15.4 °C 14.9 °C 1002.9 hPa SW 2.3 km/h 4.8 km/h 94% 0.25 mm 0 W/m2
03:39 15.4 °C 14.9 °C 1002.9 hPa SW 4.2 km/h 8 km/h 94% 0.25 mm 0 W/m2
03:44 15.4 °C 14.9 °C 1002.9 hPa SW 4 km/h 9.7 km/h 94% 0 mm 0 W/m2
03:49 15.4 °C 14.9 °C 1002.6 hPa SW 1.9 km/h 9.7 km/h 94% 0 mm 0 W/m2
03:54 15.4 °C 14.9 °C 1002.6 hPa SW 1 km/h 4.8 km/h 94% 0 mm 0 W/m2
03:59 15.4 °C 14.9 °C 1002.9 hPa SW 1.9 km/h 4.8 km/h 94% 0 mm 0 W/m2
04:04 15.4 °C 14.9 °C 1002.9 hPa SW 2.7 km/h 8 km/h 94% 0 mm 0 W/m2
04:09 15.4 °C 14.9 °C 1002.3 hPa SW 2.7 km/h 6.4 km/h 94.2% 0 mm 0 W/m2
04:14 15.3 °C 15 °C 1002.3 hPa SW 1.4 km/h 6.4 km/h 94.8% 0 mm 0 W/m2
04:19 15.3 °C 15 °C 1001.9 hPa SW 2.4 km/h 8 km/h 95% 0 mm 0 W/m2
04:24 15.3 °C 15 °C 1001.9 hPa SW 2.7 km/h 8 km/h 95% 0 mm 0 W/m2
04:29 15.3 °C 15 °C 1001.9 hPa SW 2.7 km/h 8 km/h 95% 0 mm 0 W/m2
04:34 15.3 °C 15 °C 1001.9 hPa SW 4.3 km/h 8 km/h 95% 0 mm 0 W/m2
04:39 15.3 °C 15 °C 1001.9 hPa SW 2.1 km/h 8 km/h 95% 0 mm 0 W/m2
04:44 15.3 °C 15 °C 1001.9 hPa Calm   3.2 km/h 95% 0 mm 0 W/m2
04:49 15.2 °C 14.9 °C 1001.9 hPa Calm     95% 0 mm 0 W/m2
04:54 15.2 °C 14.9 °C 1001.6 hPa SW 2.4 km/h 6.4 km/h 95% 0 mm 0 W/m2
04:59 15.2 °C 14.9 °C 1001.6 hPa SW 1 km/h 4.8 km/h 95% 0 mm 0 W/m2
05:04 15.1 °C 14.8 °C 1001.6 hPa Calm     95% 0 mm 0 W/m2
05:09 15.1 °C 14.8 °C 1001.6 hPa Calm     95% 0 mm 0 W/m2
05:14 15.1 °C 14.8 °C 1001.6 hPa Calm   3.2 km/h 95% 0 mm 0 W/m2
05:19 15.1 °C 14.7 °C 1001.2 hPa SW 1.6 km/h 4.8 km/h 95% 0 mm 0 W/m2
05:24 14.9 °C 14.7 °C 1001.2 hPa SW 1 km/h 4.8 km/h 95% 0 mm 0 W/m2
05:29 14.9 °C 14.6 °C 1001.2 hPa SW 0.3 km/h 4.8 km/h 95% 0 mm 0 W/m2
05:34 14.8 °C 14.5 °C 1001.2 hPa SW 1 km/h 4.8 km/h 95% 0 mm 0 W/m2
05:39 14.8 °C 14.5 °C 1001.2 hPa SW 0.3 km/h 4.8 km/h 95% 0 mm 0 W/m2
05:43 14.8 °C 14.5 °C 1000.9 hPa Calm     95% 0 mm 0 W/m2
05:49 14.7 °C 14.4 °C 1000.9 hPa SW 1.3 km/h 3.2 km/h 95% 0 mm 0 W/m2
05:54 14.7 °C 14.4 °C 1000.9 hPa SW 6 km/h 14.5 km/h 95% 0 mm 0 W/m2
05:59 14.8 °C 14.4 °C 1000.9 hPa SW 5.5 km/h 14.5 km/h 95% 0 mm 0 W/m2
06:04 14.8 °C 14.5 °C 1000.9 hPa SW 3.5 km/h 19.3 km/h 95% 0 mm 0 W/m2
06:09 14.9 °C 14.6 °C 1000.6 hPa SW 8 km/h 12.9 km/h 95% 0 mm 0 W/m2
06:14 14.9 °C 14.4 °C 1000.6 hPa SW 5.1 km/h 11.3 km/h 94.2% 0 mm 0 W/m2
06:19 14.9 °C 14.4 °C 1000.9 hPa SW 7.9 km/h 17.7 km/h 94% 0 mm 0 W/m2
06:24 15 °C 14.5 °C 1000.9 hPa SW 7.1 km/h 14.5 km/h 94% 0 mm 0 W/m2
06:29 15.1 °C 14.6 °C 1000.9 hPa SW 8.7 km/h 12.9 km/h 94% 0 mm 0 W/m2
06:34 15.1 °C 14.6 °C 1000.9 hPa SW 7.2 km/h 16.1 km/h 94% 0 mm 0 W/m2
06:39 15.1 °C 14.6 °C 1000.9 hPa SW 7.7 km/h 16.1 km/h 94% 0 mm 0 W/m2
06:44 15.1 °C 14.6 °C 1000.9 hPa SW 9 km/h 14.5 km/h 94% 0 mm 0 W/m2
06:49 15.2 °C 14.6 °C 1000.9 hPa SW 7.2 km/h 20.9 km/h 93.6% 0 mm 0 W/m2
06:54 15.2 °C 14.6 °C 1001.2 hPa SW 11.6 km/h 19.3 km/h 93% 0.76 mm 0 W/m2
06:59 14.9 °C 14.3 °C 1001.6 hPa SW 11.6 km/h 25.7 km/h 93% 2.03 mm 0 W/m2
07:04 14.5 °C 13.9 °C 1001.6 hPa West 10.9 km/h 27.4 km/h 93% 3.05 mm 0 W/m2
07:09 13.8 °C 13.2 °C 1001.2 hPa WNW 10.1 km/h 24.1 km/h 93% 3.05 mm 0 W/m2
07:14 13.5 °C 12.7 °C 1001.2 hPa West 7.2 km/h 19.3 km/h 92% 3.05 mm 0 W/m2
07:19 13.4 °C 12.6 °C 1001.2 hPa West 8.4 km/h 20.9 km/h 92% 3.3 mm 0 W/m2
07:24 13.3 °C 12.5 °C 1000.6 hPa West 9.8 km/h 17.7 km/h 92% 3.3 mm 0 W/m2
07:29 13.3 °C 12.4 °C 1000.2 hPa West 3.1 km/h 14.5 km/h 91.2% 3.3 mm 0 W/m2
07:34 13.2 °C 12.3 °C 1000.2 hPa West 5.3 km/h 8 km/h 91% 3.3 mm 0 W/m2
07:39 13.1 °C 12.2 °C 1000.6 hPa West 5.5 km/h 11.3 km/h 91% 3.3 mm 0 W/m2
07:44 12.9 °C 12 °C 1000.6 hPa West 2.7 km/h 8 km/h 91% 3.3 mm 0 W/m2
07:49 12.8 °C 11.9 °C 1000.6 hPa West 3.4 km/h 9.7 km/h 91% 3.3 mm 5 W/m2
07:54 12.8 °C 11.9 °C 1000.6 hPa West 6.4 km/h 11.3 km/h 91% 3.05 mm 5 W/m2
07:59 12.8 °C 11.9 °C 1000.6 hPa West 4.7 km/h 9.7 km/h 91% 2.03 mm 7 W/m2
08:04 12.8 °C 11.9 °C 1000.6 hPa West 5.3 km/h 12.9 km/h 91% 0.76 mm 9 W/m2
08:09 12.8 °C 11.8 °C 1000.6 hPa West 4.5 km/h 9.7 km/h 90.2% 0.25 mm 11 W/m2
08:14 12.8 °C 11.7 °C 1000.6 hPa West 4.8 km/h 12.9 km/h 90% 0.25 mm 14 W/m2
08:19 12.8 °C 11.8 °C 1000.9 hPa West 4 km/h 9.7 km/h 90% 0.25 mm 18 W/m2
08:24 12.8 °C 11.7 °C 1000.6 hPa WSW 4.3 km/h 14.5 km/h 90% 0 mm 23 W/m2
08:29 12.8 °C 11.7 °C 1000.6 hPa WSW 9.3 km/h 14.5 km/h 90% 0 mm 19 W/m2
08:34 12.7 °C 11.6 °C 1000.6 hPa SW 8.9 km/h 19.3 km/h 89.6% 0 mm 23 W/m2
08:39 12.7 °C 11.4 °C 1000.6 hPa SW 7.4 km/h 19.3 km/h 89% 0 mm 23 W/m2
08:44 12.7 °C 11.4 °C 1000.9 hPa SW 7.4 km/h 12.9 km/h 89% 0 mm 21 W/m2
08:49 12.7 °C 11.4 °C 1000.9 hPa SW 7.7 km/h 12.9 km/h 89% 0 mm 25 W/m2
08:54 12.7 °C 11.5 °C 1000.6 hPa SW 9.3 km/h 14.5 km/h 89.4% 0 mm 42 W/m2
08:59 12.8 °C 11.7 °C 1000.6 hPa SW 8.5 km/h 16.1 km/h 90% 0 mm 62 W/m2
09:04 13 °C 11.9 °C 1000.6 hPa SW 7.7 km/h 16.1 km/h 90% 0 mm 62 W/m2
09:09 13.2 °C 12.1 °C 1000.9 hPa SSW 9.3 km/h 16.1 km/h 90% 0 mm 93 W/m2
09:14 13.2 °C 12.1 °C 1000.9 hPa SW 9 km/h 16.1 km/h 90% 0 mm 97 W/m2
09:19 13.3 °C 12.2 °C 1000.9 hPa SW 6.8 km/h 20.9 km/h 90% 0 mm 74 W/m2
09:24 13.3 °C 12.2 °C 1000.9 hPa SW 5.6 km/h 20.9 km/h 90% 0 mm 54 W/m2
09:29 13.4 °C 12.3 °C 1000.6 hPa SW 13.4 km/h 25.7 km/h 90% 0 mm 44 W/m2
09:34 13.6 °C 12.5 °C 1000.6 hPa SW 13.4 km/h 25.7 km/h 90% 0 mm 37 W/m2
09:39 13.7 °C 12.6 °C 1000.6 hPa SW 7.9 km/h 16.1 km/h 89.8% 0 mm 32 W/m2
09:44 13.7 °C 12.4 °C 1000.6 hPa SW 8.4 km/h 17.7 km/h 89% 0 mm 32 W/m2
09:49 13.7 °C 12.4 °C 1000.6 hPa WSW 10.6 km/h 17.7 km/h 89% 0 mm 81 W/m2
09:54 13.7 °C 12.4 °C 1000.2 hPa SW 11.9 km/h 30.6 km/h 89% 0 mm 79 W/m2
09:59 13.8 °C 12.5 °C 1000.2 hPa WSW 10.9 km/h 19.3 km/h 89% 0 mm 49 W/m2
10:04 13.9 °C 12.6 °C 1000.2 hPa WSW 8.7 km/h 17.7 km/h 89% 0 mm 127 W/m2
10:09 13.9 °C 12.7 °C 1000.2 hPa SW 7.2 km/h 11.3 km/h 89% 0 mm 163 W/m2
10:14 14 °C 12.7 °C 1000.2 hPa West 6 km/h 16.1 km/h 89% 0 mm 221 W/m2
10:19 14.1 °C 12.6 °C 1000.2 hPa WSW 10.8 km/h 19.3 km/h 88% 0 mm 105 W/m2
10:24 14.2 °C 12.7 °C 1000.2 hPa SW 8.2 km/h 20.9 km/h 88% 0 mm 199 W/m2
10:29 14.3 °C 12.6 °C 1000.2 hPa SW 10.3 km/h 24.1 km/h 86.4% 0 mm 251 W/m2
10:33 14.6 °C 12.7 °C 999.9 hPa SSW 7.2 km/h 16.1 km/h 85.5% 0 mm 260 W/m2
10:39 14.7 °C 12.7 °C 999.9 hPa SW 9.7 km/h 17.7 km/h 84.6% 0 mm 272 W/m2
10:44 14.8 °C 12.6 °C 999.9 hPa WSW 10.9 km/h 25.7 km/h 84% 0 mm 283 W/m2
10:49 14.9 °C 12.6 °C 999.9 hPa WSW 10.1 km/h 24.1 km/h 83.4% 0 mm 295 W/m2
10:54 15.2 °C 12.8 °C 999.9 hPa WSW 10.5 km/h 25.7 km/h 83% 0 mm 320 W/m2
10:59 15.2 °C 12.7 °C 999.9 hPa SW 10 km/h 19.3 km/h 82.2% 0 mm 450 W/m2
11:04 15.4 °C 12.8 °C 999.9 hPa WSW 10.6 km/h 22.5 km/h 81.8% 0 mm 466 W/m2
11:09 15.6 °C 12.8 °C 999.9 hPa WSW 11.6 km/h 17.7 km/h 81% 0 mm 352 W/m2
11:14 15.7 °C 12.9 °C 999.9 hPa WSW 8.5 km/h 22.5 km/h 81% 0 mm 380 W/m2
11:19 15.7 °C 12.9 °C 999.9 hPa SW 10 km/h 22.5 km/h 81% 0 mm 367 W/m2
11:24 15.7 °C 12.7 °C 999.9 hPa WSW 14 km/h 25.7 km/h 80% 0 mm 376 W/m2
11:29 15.6 °C 12.6 °C 999.9 hPa SW 12.6 km/h 35.4 km/h 80% 0 mm 369 W/m2
11:34 15.7 °C 12.7 °C 999.5 hPa WSW 12.6 km/h 19.3 km/h 80% 0 mm 380 W/m2
11:39 15.9 °C 12.8 °C 999.5 hPa SW 13.8 km/h 33.8 km/h 79.2% 0 mm 406 W/m2
11:44 15.8 °C 12.7 °C 999.5 hPa SW 14.8 km/h 33.8 km/h 78.8% 0 mm 438 W/m2
11:49 16 °C 12.7 °C 999.5 hPa WSW 17.1 km/h 32.2 km/h 78.4% 0 mm 438 W/m2
11:53 16 °C 12.7 °C 999.9 hPa WSW 14 km/h 32.2 km/h 78% 0 mm 524 W/m2
11:59 16.1 °C 12.7 °C 999.9 hPa WSW 14.2 km/h 27.4 km/h 77.8% 0 mm 524 W/m2
12:04 16.2 °C 12.6 °C 999.9 hPa West 20.1 km/h 37 km/h 77.2% 0 mm 563 W/m2
12:09 16.2 °C 12.5 °C 999.5 hPa WSW 16.7 km/h 35.4 km/h 76.2% 0 mm 550 W/m2
12:14 16.3 °C 12.4 °C 999.5 hPa SW 18.3 km/h 30.6 km/h 75.8% 0 mm 640 W/m2
12:19 16.3 °C 12.4 °C 999.5 hPa WSW 23.5 km/h 30.6 km/h 75.8% 0 mm 589 W/m2
12:24 16.2 °C 12.2 °C 999.9 hPa West 23.7 km/h 45.1 km/h 74.8% 0 mm 267 W/m2
12:29 15.9 °C 11.8 °C 999.9 hPa West 20.3 km/h 45.1 km/h 74.2% 0 mm 364 W/m2
12:34 15.2 °C 11.7 °C 999.9 hPa WNW 19.8 km/h 37 km/h 77.2% 0 mm 441 W/m2
12:39 14.9 °C 11.7 °C 999.5 hPa West 23.8 km/h 32.2 km/h 78.6% 0 mm 295 W/m2
12:44 14.7 °C 11.7 °C 999.9 hPa WNW 18 km/h 33.8 km/h 79.8% 0.25 mm 643 W/m2
12:49 14.4 °C 12.2 °C 999.9 hPa West 11.4 km/h 33.8 km/h 83.4% 0.51 mm 643 W/m2
12:54 14.4 °C 12.1 °C 999.5 hPa West 12.6 km/h 25.7 km/h 83.6% 0.51 mm 605 W/m2
12:59 14.3 °C 11.9 °C 999.5 hPa West 14.2 km/h 27.4 km/h 82.6% 0.51 mm 517 W/m2
13:03 14.4 °C 11.9 °C 999.5 hPa West 12.6 km/h 29 km/h 81.8% 0.51 mm 462 W/m2
13:09 14.5 °C 11.8 °C 999.5 hPa West 11.1 km/h 25.7 km/h 81% 0.51 mm 450 W/m2
13:14 14.8 °C 12 °C 999.5 hPa WNW 13.4 km/h 24.1 km/h 80.6% 0.51 mm 454 W/m2
13:19 15.1 °C 12.2 °C 999.2 hPa West 12.6 km/h 29 km/h 79.8% 0.51 mm 450 W/m2
13:24 15.2 °C 12.1 °C 999.2 hPa West 11.3 km/h 25.7 km/h 78.8% 0.51 mm 462 W/m2
13:29 15.5 °C 12.3 °C 999.2 hPa West 12.9 km/h 20.9 km/h 78.6% 0.51 mm 457 W/m2
13:34 15.7 °C 12.2 °C 999.2 hPa West 10 km/h 19.3 km/h 77.4% 0.51 mm 464 W/m2
13:39 15.8 °C 12.1 °C 999.2 hPa West 15.8 km/h 33.8 km/h 76% 0.51 mm 448 W/m2
13:44 15.7 °C 11.9 °C 999.2 hPa West 13.8 km/h 30.6 km/h 76% 0.51 mm 445 W/m2
13:49 15.8 °C 12.1 °C 999.2 hPa WNW 12.6 km/h 30.6 km/h 76% 0 mm 441 W/m2
13:54 15.8 °C 11.8 °C 999.2 hPa West 16.1 km/h 27.4 km/h 74.8% 0 mm 445 W/m2
13:59 15.8 °C 11.8 °C 998.9 hPa West 14.8 km/h 30.6 km/h 74.2% 0 mm 436 W/m2
14:04 15.9 °C 11.9 °C 998.9 hPa West 13.2 km/h 24.1 km/h 74.4% 0 mm 432 W/m2
14:08 15.8 °C 11.8 °C 998.9 hPa West 19 km/h 33.8 km/h 74% 0 mm 132 W/m2
14:14 15.7 °C 11.6 °C 998.9 hPa West 16.9 km/h 30.6 km/h 74% 0 mm 459 W/m2
14:19 15.7 °C 11.7 °C 998.5 hPa West 12.6 km/h 22.5 km/h 74.6% 0 mm 459 W/m2
14:24 15.8 °C 11.9 °C 998.5 hPa West 13.2 km/h 24.1 km/h 75% 0 mm 485 W/m2
14:29 15.5 °C 11.6 °C 998.5 hPa West 16.1 km/h 24.1 km/h 75% 0 mm 153 W/m2
14:34 15.2 °C 11.6 °C 998.5 hPa WNW 13.7 km/h 25.7 km/h 76.4% 0 mm 483 W/m2
14:39 15.3 °C 11.7 °C 998.5 hPa WNW 19 km/h 27.4 km/h 76.2% 0 mm 483 W/m2
14:44 15.4 °C 11.7 °C 998.5 hPa West 14.3 km/h 27.4 km/h 75.8% 0 mm 429 W/m2
14:49 15.7 °C 11.9 °C 998.2 hPa West 11.3 km/h 27.4 km/h 75.6% 0 mm 459 W/m2
14:54 15.7 °C 11.8 °C 998.2 hPa WNW 8.9 km/h 22.5 km/h 75.5% 0 mm 448 W/m2
14:59 15.7 °C 11.8 °C 998.2 hPa West 10.9 km/h 19.3 km/h 75% 0 mm 436 W/m2
15:04 15.8 °C 11.8 °C 997.9 hPa NW 7.1 km/h 19.3 km/h 75% 0 mm 464 W/m2
15:09 15.9 °C 11.9 °C 997.9 hPa WNW 9.7 km/h 17.7 km/h 74.4% 0 mm 418 W/m2
15:14 15.9 °C 11.4 °C 997.9 hPa WNW 15.4 km/h 27.4 km/h 72.8% 0 mm 385 W/m2
15:19 15.8 °C 11.2 °C 997.9 hPa WNW 12.2 km/h 24.1 km/h 71.8% 0 mm 429 W/m2
15:24 16 °C 11.4 °C 997.9 hPa WNW 8.7 km/h 19.3 km/h 72% 0 mm 431 W/m2
15:29 16.3 °C 11.6 °C 997.9 hPa West 9.3 km/h 17.7 km/h 71.4% 0 mm 410 W/m2
15:34 16.3 °C 11.5 °C 997.9 hPa West 12.9 km/h 20.9 km/h 71% 0 mm 359 W/m2
15:39 16.2 °C 11.2 °C 997.9 hPa West 11.9 km/h 25.7 km/h 70% 0 mm 357 W/m2
15:44 16.4 °C 11.4 °C 997.9 hPa WSW 9.7 km/h 19.3 km/h 70.4% 0 mm 357 W/m2
15:49 16.6 °C 11.2 °C 997.9 hPa West 10.3 km/h 19.3 km/h 68.4% 0 mm 360 W/m2
15:54 16.5 °C 11 °C 997.5 hPa West 14.5 km/h 25.7 km/h 67.8% 0 mm 320 W/m2
15:59 16.2 °C 10.7 °C 997.5 hPa West 16.1 km/h 27.4 km/h 67.4% 0 mm 276 W/m2
16:04 16.2 °C 10.1 °C 997.5 hPa West 7.7 km/h 24.1 km/h 65% 0 mm 283 W/m2
16:09 16.2 °C 10.1 °C 997.2 hPa West 9.8 km/h 17.7 km/h 65.2% 0 mm 195 W/m2
16:14 15.8 °C 9.9 °C 997.2 hPa West 10.6 km/h 17.7 km/h 65.6% 0 mm 104 W/m2
16:19 15.7 °C 9.9 °C 997.2 hPa West 9.3 km/h 19.3 km/h 66.2% 0 mm 93 W/m2
16:24 15.4 °C 9.9 °C 996.8 hPa WNW 7.6 km/h 17.7 km/h 67.4% 0 mm 91 W/m2
16:29 15.3 °C 9.9 °C 996.8 hPa WNW 6.9 km/h 14.5 km/h 68% 0 mm 60 W/m2
16:34 15.2 °C 9.9 °C 996.8 hPa WNW 4 km/h 11.3 km/h 68.4% 0 mm 46 W/m2
16:39 15.1 °C 9.9 °C 996.5 hPa WNW 4.7 km/h 8 km/h 69% 0 mm 35 W/m2
16:44 15.2 °C 10.1 °C 996.5 hPa WNW 3.7 km/h 8 km/h 69.6% 0 mm 46 W/m2
16:49 15.2 °C 10.2 °C 996.5 hPa WNW 2.7 km/h 6.4 km/h 70% 0 mm 49 W/m2
16:54 15.1 °C 10.1 °C 996.2 hPa WNW 4.8 km/h 8 km/h 70% 0 mm 44 W/m2
16:59 15.1 °C 10.1 °C 996.2 hPa WNW 3.9 km/h 8 km/h 70% 0 mm 42 W/m2
17:04 15.1 °C 10.1 °C 995.8 hPa WNW 2.1 km/h 4.8 km/h 70% 0 mm 42 W/m2
17:09 15 °C 10.1 °C 995.8 hPa WNW 4.7 km/h 9.7 km/h 70% 0 mm 40 W/m2
17:14 14.9 °C 10.5 °C 995.8 hPa WSW 8.4 km/h 12.9 km/h 72.6% 0 mm 39 W/m2
17:19 14.8 °C 10.8 °C 995.8 hPa WSW 3.9 km/h 9.7 km/h 74.6% 0 mm 35 W/m2
17:24 14.7 °C 11 °C 995.8 hPa WSW 5.1 km/h 12.9 km/h 75.8% 0 mm 28 W/m2
17:29 14.6 °C 11.1 °C 995.5 hPa SW 5.8 km/h 14.5 km/h 76.8% 0 mm 25 W/m2
17:34 14.6 °C 11.1 °C 995.5 hPa SW 4.8 km/h 9.7 km/h 77% 0 mm 18 W/m2
17:39 14.4 °C 11.1 °C 995.1 hPa SW 3.2 km/h 9.7 km/h 77.6% 0 mm 12 W/m2
17:44 14.4 °C 11.1 °C 995.1 hPa SW 3.2 km/h 12.9 km/h 78% 0 mm 11 W/m2
17:49 14.3 °C 11.1 °C 995.1 hPa SW 3.1 km/h 12.9 km/h 78.6% 0 mm 5 W/m2
17:54 14.3 °C 11.2 °C 995.1 hPa SW 4.5 km/h 9.7 km/h 79% 0 mm 0 W/m2
17:59 14.2 °C 11.1 °C 994.8 hPa SW 6.6 km/h 8 km/h 79% 0 mm 0 W/m2
18:04 14.1 °C 11.1 °C 994.8 hPa SW 2.7 km/h 8 km/h 79.6% 0 mm 0 W/m2
18:09 14 °C 11.1 °C 994.8 hPa SW 1.8 km/h 9.7 km/h 80% 0 mm 0 W/m2
18:14 13.9 °C 11.1 °C 994.8 hPa SW 7.4 km/h 11.3 km/h 80% 0 mm 0 W/m2
18:19 13.9 °C 11.2 °C 994.5 hPa SW 4.3 km/h 11.3 km/h 81% 0 mm 0 W/m2
18:24 13.8 °C 11.1 °C 994.1 hPa SW 4 km/h 8 km/h 81% 0 mm 0 W/m2
18:29 13.7 °C 11.1 °C 994.1 hPa SW 2.4 km/h 8 km/h 81% 0 mm 0 W/m2
18:34 13.8 °C 11.3 °C 993.8 hPa SW 1.9 km/h 4.8 km/h 82% 0 mm 0 W/m2
18:39 13.8 °C 11.3 °C 993.8 hPa SW 2.9 km/h 4.8 km/h 82% 0 mm 0 W/m2
18:44 13.7 °C 11.2 °C 993.8 hPa SW 2.6 km/h 6.4 km/h 82% 0 mm 0 W/m2
18:49 13.7 °C 11.4 °C 993.5 hPa SW 2.1 km/h 4.8 km/h 82.8% 0 mm 0 W/m2
18:54 13.7 °C 11.4 °C 993.5 hPa SW 2.3 km/h 6.4 km/h 83% 0 mm 0 W/m2
18:59 13.7 °C 11.4 °C 993.1 hPa SW 0.6 km/h 6.4 km/h 83% 0 mm 0 W/m2
19:04 13.7 °C 11.5 °C 993.1 hPa SW 1.6 km/h 4.8 km/h 84% 0.25 mm 0 W/m2
19:09 13.6 °C 11.4 °C 992.8 hPa SW 1.4 km/h 4.8 km/h 84% 0.25 mm 0 W/m2
19:14 13.6 °C 11.4 °C 992.8 hPa SW 3.9 km/h 6.4 km/h 84.2% 0.51 mm 0 W/m2
19:19 13.3 °C 11.3 °C 992.4 hPa SW 3.4 km/h 8 km/h 85% 0.51 mm 0 W/m2
19:24 13.2 °C 11.3 °C 992.1 hPa SW 5 km/h 11.3 km/h 85.6% 0.76 mm 0 W/m2
19:29 13 °C 11.2 °C 991.8 hPa SW 5 km/h 11.3 km/h 86% 1.02 mm 0 W/m2
19:34 12.9 °C 11.2 °C 991.8 hPa SW 2.9 km/h 8 km/h 86.8% 1.27 mm 0 W/m2
19:39 12.8 °C 11.3 °C 991.8 hPa SW 5.1 km/h 9.7 km/h 87.2% 1.27 mm 0 W/m2
19:44 12.7 °C 11.2 °C 991.4 hPa SW 5.8 km/h 9.7 km/h 87.6% 1.52 mm 0 W/m2
19:49 12.6 °C 11.2 °C 991.4 hPa SW 9 km/h 16.1 km/h 88% 1.52 mm 0 W/m2
19:54 12.4 °C 11.1 °C 990.7 hPa SW 7.6 km/h 17.7 km/h 88.6% 1.78 mm 0 W/m2
19:59 12.3 °C 11 °C 990.1 hPa NE 7.6 km/h 20.9 km/h 89% 1.78 mm 0 W/m2
20:04 12.3 °C 11.1 °C 989.7 hPa NE 9.5 km/h 24.1 km/h 89.5% 2.03 mm 0 W/m2
20:09 12.2 °C 11.2 °C 989.7 hPa ENE 7.9 km/h 17.7 km/h 90% 1.78 mm 0 W/m2
20:14 12.2 °C 11.1 °C 989.4 hPa ENE 8.2 km/h 19.3 km/h 90% 1.78 mm 0 W/m2
20:19 12.1 °C 11 °C 989.1 hPa ENE 7.2 km/h 14.5 km/h 90% 1.78 mm 0 W/m2
20:24 12.1 °C 11.1 °C 989.1 hPa ENE 4.2 km/h 12.9 km/h 90.4% 1.52 mm 0 W/m2
20:29 12.1 °C 11.2 °C 989.4 hPa ENE 5.3 km/h 11.3 km/h 91% 1.52 mm 0 W/m2
20:34 12 °C 11.1 °C 989.4 hPa ENE 3.2 km/h 11.3 km/h 91% 1.27 mm 0 W/m2
20:39 12 °C 11.1 °C 989.4 hPa ENE 4.7 km/h 14.5 km/h 91% 1.02 mm 0 W/m2
20:44 12.1 °C 11.2 °C 989.4 hPa East 3.5 km/h 11.3 km/h 91% 1.02 mm 0 W/m2
20:49 12 °C 11.1 °C 989.4 hPa East 5.1 km/h 11.3 km/h 91% 1.02 mm 0 W/m2
20:54 11.9 °C 11 °C 989.4 hPa East 7.7 km/h 12.9 km/h 91% 1.02 mm 0 W/m2
20:59 11.8 °C 11.1 °C 989.1 hPa East 7.2 km/h 12.9 km/h 92% 1.52 mm 0 W/m2
21:04 11.8 °C 10.9 °C 989.1 hPa ENE 10.8 km/h 16.1 km/h 91.4% 1.52 mm 0 W/m2
21:09 11.6 °C 10.8 °C 989.1 hPa NE 7.9 km/h 17.7 km/h 92% 2.03 mm 0 W/m2
21:14 11.6 °C 10.8 °C 988.7 hPa NE 4.8 km/h 17.7 km/h 92% 2.54 mm 0 W/m2
21:19 11.5 °C 10.7 °C 988.7 hPa NE 7.1 km/h 14.5 km/h 92% 3.56 mm 0 W/m2
21:23 11.4 °C 10.7 °C 988.7 hPa NNE 8 km/h 17.7 km/h 92% 4.32 mm 0 W/m2
21:29 11.4 °C 10.6 °C 988.7 hPa NNE 7.2 km/h 16.1 km/h 92% 5.08 mm 0 W/m2
21:34 11.4 °C 10.6 °C 988.7 hPa NNE 7.7 km/h 19.3 km/h 92% 5.59 mm 0 W/m2
21:39 11.3 °C 10.6 °C 989.1 hPa NNE 13.8 km/h 22.5 km/h 92% 6.35 mm 0 W/m2
21:44 11.1 °C 10.3 °C 989.1 hPa NNE 13.7 km/h 24.1 km/h 92% 7.11 mm 0 W/m2
21:49 10.8 °C 10 °C 989.1 hPa NNE 13.8 km/h 24.1 km/h 92% 7.37 mm 0 W/m2
21:54 10.6 °C 9.8 °C 989.4 hPa NNE 9.7 km/h 27.4 km/h 92% 7.87 mm 0 W/m2
21:59 10.4 °C 9.7 °C 989.4 hPa NNE 15.8 km/h 27.4 km/h 92% 8.13 mm 0 W/m2
22:04 10.2 °C 9.5 °C 989.7 hPa NNE 9.7 km/h 22.5 km/h 92% 8.89 mm 0 W/m2
22:09 10.2 °C 9.4 °C 989.7 hPa NNE 9.5 km/h 20.9 km/h 92.3% 9.14 mm 0 W/m2
22:14 10 °C 9.3 °C 989.7 hPa NNE 9 km/h 24.1 km/h 92.4% 9.14 mm 0 W/m2
22:19 9.9 °C 9.2 °C 990.1 hPa NNE 6.6 km/h 24.1 km/h 92% 8.89 mm 0 W/m2
22:24 9.9 °C 9.2 °C 990.1 hPa NNE 10.6 km/h 17.7 km/h 92.4% 8.38 mm 0 W/m2
22:29 10 °C 9.4 °C 990.4 hPa North 13.8 km/h 27.4 km/h 93% 7.87 mm 0 W/m2
22:34 10.1 °C 9.5 °C 990.7 hPa North 13.5 km/h 22.5 km/h 93% 7.87 mm 0 W/m2
22:39 10.2 °C 9.6 °C 990.7 hPa North 12.2 km/h 24.1 km/h 93% 7.87 mm 0 W/m2
22:44 10.1 °C 9.5 °C 990.7 hPa North 12.2 km/h 29 km/h 93% 7.87 mm 0 W/m2
22:49 10.1 °C 9.5 °C 991.1 hPa NNW 8.7 km/h 25.7 km/h 93% 7.87 mm 0 W/m2
22:54 10.1 °C 9.5 °C 991.4 hPa NNW 13.2 km/h 27.4 km/h 93% 7.87 mm 0 W/m2
22:59 9.9 °C 9.3 °C 991.4 hPa NW 11.6 km/h 29 km/h 93% 7.62 mm 0 W/m2
23:04 9.9 °C 9.3 °C 991.8 hPa NNW 12.9 km/h 22.5 km/h 93% 7.11 mm 0 W/m2
23:09 9.8 °C 9.2 °C 992.1 hPa North 16.9 km/h 24.1 km/h 93% 6.6 mm 0 W/m2
23:14 9.4 °C 8.8 °C 992.1 hPa NNW 17.4 km/h 33.8 km/h 93% 6.35 mm 0 W/m2
23:19 9.2 °C 8.6 °C 992.4 hPa NW 22.2 km/h 30.6 km/h 93% 6.1 mm 0 W/m2
23:24 8.8 °C 8.2 °C 992.8 hPa NNW 20.6 km/h 35.4 km/h 93% 5.84 mm 0 W/m2
23:29 8.7 °C 8.1 °C 993.1 hPa NNW 16.4 km/h 25.7 km/h 93% 5.59 mm 0 W/m2
23:34 8.6 °C 8 °C 993.5 hPa NNW 13.8 km/h 20.9 km/h 93% 5.08 mm 0 W/m2
23:39 8.4 °C 7.8 °C 993.8 hPa NNW 12.6 km/h 24.1 km/h 93% 4.83 mm 0 W/m2
23:44 8.4 °C 7.8 °C 994.1 hPa NNW 13.2 km/h 29 km/h 93% 4.32 mm 0 W/m2
23:49 8.4 °C 7.8 °C 994.1 hPa NW 10.6 km/h 20.9 km/h 93% 3.56 mm 0 W/m2
23:54 8.4 °C 7.8 °C 994.5 hPa NNW 10.8 km/h 19.3 km/h 93% 3.05 mm 0 W/m2
23:59 8.4 °C 7.8 °C 994.5 hPa NW 6.9 km/h 19.3 km/h 93% 2.54 mm 0 W/m2
Bath Spa Weather
Compliments of Weather Underground - 2 mb